Showing default

GOES 2, 10061

Orbit data source: Space-Track

GOES 2, 10061 is a payload satellite owned by NOAA (US) in GEO that was launched on Thu, 16 Jun 1977 UTC via a DELTA 2914 launch vehicle from the Air Force Eastern Test Range (AFETR). Payload-class satellites include a variety of spacecraft equipped with specific instruments for various scientific and technological missions. These include communications satellites like Starlink; space stations such as the ISS; scientific satellites like the Hubble; Earth observation satellites from companies like Planet Labs, Umbra, and HawkEye 360; GPS; miniature CubeSats for education and research; and military/defense satellites.

Loading next visibility...
Identifier
10061, 1977-048A
Orbit
GEO
Country
Flag of USUS
Related business
Manufacturer
Ford Ae
Mission
Non-operational Civil Weather
Bus & Motor
SMS, SVM-5
Mass
624 kg wet, ~277 kg dry
Launch date (UTC)
1977-06-16 (48 years ago)
Launch vehicle
DELTA 2914
Launch site
Air Force Eastern Test Range (AFETR)
Object type
Payload
Rocket body
Debris
Shape & HBR
Cyl, 1.3 m
Radar Cross Section
5.298 m², Large (>1 m²)

Expand to show TLE details & history
Last TLE update: 22 hours ago

TLE from 22 hours ago
0 GOES 2
1 10061U 77048A   25260.99570653 -.00000158  00000-0  00000-0 0  9998
2 10061   7.0717 295.5915 0010727  43.1859 299.2614  0.99395611 43569
Epoch: 2025-09-17T23:53Z
TLE epoch observation values (Epoch: 2025-09-17T23:53:49.044Z)
Latitude
-2.12653°
Longitude
-77.5447°
Altitude
36,011.58 km
Speed
3.067 km/s
True Right ascension
18h 32m 17s
True Declination
-2° 07' 28"
Sunlit
Object was in daylight at epoch
Visualization orbit readout
Latitude
Unknown
Longitude
Unknown
Altitude
Unknown
Speed
Unknown
Apparent Right ascension
Unknown
Apparent Declination
Unknown
Sunlit
N/A
Visualization observer readout
Local Sidereal Time
15:15:32
Azimuth
Unknown
Elevation
Unknown
Doppler factor
Unknown
Orbital elements
Apogee altitude
36,080.558 km
Perigee altitude
35,989.565 km
Semi-major axis
42,413.199 km
Eccentricity
0.00107
Inclination
7.0717°
RAAN
295.5915°
Arg. of periapsis
43.1859°
True anomaly
299.15409°
Mean anomaly
299.2614°
Eccentric anomaly
299.20775°
Mean motion
0.24848 °/min
Orbital period
1,448.81 mins
BSTAR
0
Loading maneuver chart data...
Computing Atmospheric mass density...
Loading historical data...
Loading historical data...
Loading historical data...
Loading historical data...
Loading historical data...
Loading historical data...
Loading historical data...

Documentation

Showing up to 5 results
|